SPACEBEE-107 (48894 NORAD) Tracking and Keplerian Element Data

This shows tracking and keplerian element data for the satellite.

Feedback or suggestion? Click here.




ElementValue
Catalog48894
NameSPACEBEE-107
Epoch Orbit1392
Epoch Day268.93802814
Epoch Year2021
RAAN36.3997
Inclination97.5269
Eccentricity0.000818
Argument of Perigee301.886
Mean Anonmoly58.1574
Mean Motion15.12348317
Decay Rate3.461E-05
L11 48894U 21059R 21268.93802814 .00003461 00000-0 20325-3 0 9993
L22 48894 97.5269 36.3997 0008180 301.8860 58.1574 15.12348317 13923

Live tracking and technical data element details for SPACEBEE-107 (NORAD 48894). SPACEBEE-107 can be tracked NOW for your location showing map with azimuth and elevation plus other details from your city location.

Track the satellite on the map from your city or location and see movement details for azimuth, elevation, latitude, longitude, range, height, and movement on the map or in text.







IsCatalogInMostPopularTable: catalog: 48894, numindb: 16
Update: records affected: 1



GetName: 48894 SPACEBEE-107

Hit Count: updated at: Sun, 26 Sep 2021 15:30:12 GMT